#timestamp,LO_Frequency,Hit 
1504508415.1,286046998.2,N
1504508435.9,286047000.5,N
1504508455.7,286047001.2,N
1504508475.5,286047002.2,N
1504508495.4,286047000.1,N
1504508515.2,286047002.2,N
1504508535.0,286047001.6,N
1504508535.9,286047001.6,N
1504508555.8,286047002.4,N
1504508575.6,286046998.3,N
1504508595.4,286046999.8,N
1504508615.3,286047005.6,N
1504508635.1,286047003.6,N
1504508636.0,286047003.6,N
1504508655.8,286047002.9,N
1504508675.7,286047006.0,N
1504508695.5,286047003.8,N
1504508715.3,286047005.7,N
1504508735.2,286047001.7,N
1504508755.9,286046999.1,N
1504508775.7,286046999.1,N
1504508795.5,286047001.0,N
1504508815.4,286046996.5,N
1504508835.2,286046998.1,N
1504508855.0,286046998.9,N
1504508855.9,286046998.9,N
1504508875.8,286046999.8,N
1504508895.6,286046997.7,N
1504508915.4,286046998.1,N
1504508935.3,286046996.8,N
1504508955.1,286046999.2,N
1504508956.0,286046999.2,N
1504508975.8,286046996.6,N
1504508995.7,286046998.6,N
1504509015.5,286046996.5,N
1504509035.3,286046995.6,N
1504509055.2,286046996.1,N
1504509075.9,286046996.1,N
1504509095.7,286046996.4,N
1504509115.5,286046995.1,N
1504509135.4,286046995.3,N
1504509155.2,286046995.6,N
1504509175.0,286046996.6,N
1504509175.9,286046996.6,N
1504509195.8,286046999.4,N
1504509215.6,286046999.5,N
1504509235.4,286046999.4,N
1504509255.3,286046997.3,N
1504509275.1,286046995.3,N
1504509295.8,286046995.3,N
1504509315.7,286046995.0,P
1504509335.5,286046997.3,N
1504509355.3,286046997.3,N
1504509375.2,286046999.2,N
1504509395.9,286046996.9,N
1504509415.7,286046999.6,N
1504509435.6,286046995.2,P
1504509455.4,286047000.6,N
1504509475.2,286047000.8,N
1504509495.1,286047001.5,N
1504509496.0,286047001.5,N
1504509515.8,286047003.3,N
1504509535.6,286047002.4,N
1504509555.5,286047004.4,N
1504509575.3,286046998.3,N
1504509595.1,286046997.0,N
1504509615.9,286046997.5,N
1504509635.7,286046999.1,N
1504509655.5,286046995.0,N
1504509675.3,286046998.2,N
1504509695.2,286046998.6,N
1504509715.0,286046999.5,N
1504509715.9,286046999.5,N
1504509735.7,286046999.4,N
1504509755.6,286046997.7,N
1504509775.4,286046994.9,N
1504509795.2,286046996.9,N
1504509815.1,286046997.7,N
1504509816.0,286046997.7,N
1504509835.8,286046999.0,N
1504509855.6,286046997.3,N
1504509875.5,286046998.3,N
1504509895.3,286046997.9,N
1504509915.1,286046997.8,N
1504509935.9,286046995.0,N
1504509955.7,286046996.7,N
1504509975.5,286046998.0,N
1504509995.3,286046995.6,N
1504510015.2,286046996.1,N
1504510035.0,286046992.2,P
1504510035.9,286046992.2,N
1504510055.8,286046995.3,N
1504510075.6,286046993.7,N
1504510095.4,286046995.3,N
1504510115.2,286046995.4,N
1504510135.1,286046996.1,N
1504510136.0,286046996.1,N
1504510155.8,286046995.6,N
1504510175.6,286046996.3,N
1504510195.5,286046995.9,N
1504510215.3,286046996.1,N
1504510235.1,286046995.2,N
1504510255.9,286046994.9,P
1504510275.7,286046998.1,P
1504510295.5,286047000.9,N
1504510315.4,286046999.6,N
1504510335.2,286046996.9,N
1504510355.0,286046999.6,N
1504510355.9,286046999.6,N
1504510375.8,286046999.1,N
1504510395.6,286046999.6,N
1504510415.4,286046997.9,N
1504510435.3,286046993.3,P
1504510455.1,286046996.4,N
1504510475.8,286046993.3,P
1504510495.7,286046993.9,N
1504510515.5,286046993.7,P
1504510535.3,286046998.1,N
1504510555.2,286047002.1,N
1504510575.0,286046999.9,N
1504510575.9,286046999.9,N
1504510595.7,286046998.1,N
1504510615.6,286046999.5,N
1504510635.4,286046999.9,N
1504510655.2,286047004.4,N
1504510675.1,286047001.8,N
1504510676.0,286047001.8,N
1504510695.8,286047001.7,N
1504510715.6,286047002.2,N
1504510735.5,286046998.9,N
1504510755.3,286046999.2,N
1504510775.1,286046997.5,N
1504510795.8,286046999.9,N
1504510815.7,286047004.4,N
1504510835.5,286047001.5,N
1504510855.3,286047003.8,N
1504510875.2,286047001.2,N
1504510895.9,286046998.3,N
1504510915.7,286047000.9,N
1504510935.6,286046999.3,N
1504510955.4,286047001.0,N
1504510975.2,286046998.1,N
1504510995.1,286047000.7,N
1504510996.0,286047000.7,N
1504511015.8,286046999.7,N
1504511035.6,286047000.8,N
1504511055.5,286047000.6,N
1504511075.3,286046999.0,N
1504511095.1,286046998.8,N
1504511115.8,286046997.8,N
1504511135.7,286046997.3,N
1504511155.5,286047002.7,N
1504511175.3,286047000.6,N
1504511195.2,286046999.2,N
1504511215.0,286046996.5,N
1504511215.9,286046996.5,N
1504511235.7,286047001.1,N
1504511255.6,286046998.3,N
1504511275.4,286046999.3,N
1504511295.2,286046997.9,N
1504511315.1,286046996.5,N
1504511316.0,286046996.5,N
1504511335.8,286046999.1,N
1504511355.6,286046995.8,N
1504511375.5,286046995.0,N
1504511395.3,286046996.4,N
1504511415.1,286046993.6,P
1504511435.9,286046994.1,N
1504511455.7,286046994.1,N
1504511475.5,286046993.0,P
1504511495.4,286046998.6,N
1504511515.2,286046997.3,N
1504511535.0,286046997.5,N
1504511535.9,286046997.5,N
1504511555.8,286046995.5,N
1504511575.6,286046994.7,P
1504511595.4,286046999.5,N
1504511615.3,286046997.3,N
1504511635.1,286046997.2,N
1504511655.8,286046998.8,N
1504511675.7,286046999.1,N
1504511695.5,286046998.9,N
1504511715.3,286046999.1,N
1504511735.2,286047001.2,N
1504511755.9,286047000.8,N
1504511775.7,286047000.5,N
1504511795.6,286047004.0,N
1504511815.4,286047002.8,N
1504511835.2,286047002.8,N
1504511855.0,286047000.1,N
1504511855.9,286047000.1,N
1504511875.8,286047002.7,N
1504511895.6,286046998.1,N
1504511915.4,286046997.8,N
1504511935.3,286046999.4,N
1504511955.1,286046998.6,N
1504511975.8,286046998.4,N
1504511995.7,286046999.6,N
